TimeHST,TemperatureF,Dew PointF,Humidity,Sea Level PressureIn,VisibilityMPH,Wind Direction,Wind SpeedMPH,Gust SpeedMPH,PrecipitationIn,Events,Conditions,WindDirDegrees,DateUTC
12:54 AM,73.9,68.0,82,30.02,10.0,NNE,10.4,-,N/A,,Mostly Cloudy,20,2013-09-04 10:54:00
1:54 AM,73.0,66.9,81,30.01,10.0,NE,5.8,-,N/A,,Clear,40,2013-09-04 11:54:00
2:54 AM,73.0,68.0,84,30.01,10.0,NNE,6.9,-,N/A,,Mostly Cloudy,20,2013-09-04 12:54:00
3:54 AM,72.0,66.9,84,30.01,10.0,NNE,5.8,-,N/A,,Clear,20,2013-09-04 13:54:00
4:54 AM,71.1,68.0,90,30.01,10.0,North,8.1,-,N/A,,Clear,10,2013-09-04 14:54:00
5:54 AM,72.0,69.1,91,30.02,10.0,NNE,5.8,-,N/A,,Clear,20,2013-09-04 15:54:00
6:54 AM,73.0,69.1,87,30.03,10.0,North,5.8,-,N/A,,Partly Cloudy,10,2013-09-04 16:54:00
7:54 AM,77.0,69.1,76,30.04,10.0,NE,5.8,-,N/A,,Scattered Clouds,40,2013-09-04 17:54:00
8:54 AM,77.0,68.0,74,30.05,10.0,NE,8.1,-,N/A,,Mostly Cloudy,50,2013-09-04 18:54:00
9:54 AM,80.1,64.9,60,30.05,10.0,NE,6.9,-,N/A,,Mostly Cloudy,50,2013-09-04 19:54:00
10:54 AM,80.1,64.9,60,30.05,10.0,NNE,9.2,18.4,N/A,,Mostly Cloudy,20,2013-09-04 20:54:00
11:54 AM,81.0,66.9,62,30.04,10.0,NNE,12.7,21.9,N/A,,Scattered Clouds,20,2013-09-04 21:54:00
12:54 PM,82.9,64.9,54,30.02,10.0,NNE,12.7,19.6,N/A,,Mostly Cloudy,20,2013-09-04 22:54:00
1:54 PM,84.0,66.0,55,30.00,10.0,NNE,13.8,19.6,N/A,,Mostly Cloudy,30,2013-09-04 23:54:00
2:54 PM,84.0,66.9,56,29.98,10.0,North,15.0,21.9,N/A,,Mostly Cloudy,10,2013-09-05 00:54:00
3:54 PM,80.1,69.1,69,29.98,10.0,NNE,15.0,20.7,N/A,,Scattered Clouds,20,2013-09-05 01:54:00
4:54 PM,79.0,69.1,72,29.98,10.0,NNE,11.5,20.7,N/A,,Scattered Clouds,20,2013-09-05 02:54:00
5:54 PM,78.1,69.1,74,29.99,10.0,NE,11.5,19.6,N/A,,Partly Cloudy,40,2013-09-05 03:54:00
6:54 PM,75.0,69.1,82,30.01,10.0,NNE,11.5,18.4,N/A,,Partly Cloudy,30,2013-09-05 04:54:00
7:54 PM,73.9,69.1,85,30.03,10.0,NE,8.1,-,N/A,,Clear,50,2013-09-05 05:54:00
8:54 PM,73.9,69.1,85,30.04,10.0,NNE,8.1,-,N/A,,Clear,20,2013-09-05 06:54:00
9:54 PM,73.9,66.0,76,30.05,10.0,NNE,4.6,-,N/A,,Partly Cloudy,30,2013-09-05 07:54:00
10:54 PM,73.0,66.0,79,30.04,10.0,NNE,10.4,-,N/A,,Clear,30,2013-09-05 08:54:00
11:54 PM,71.1,64.0,78,30.04,10.0,NE,4.6,-,N/A,,Clear,50,2013-09-05 09:54:00